DW7896 Weather Reports


time (UTC)temp
F
wind
direction
speed
knots
gust
knots
rain 1hr
in
rain 24hr
in
rain mn
in
humidity
%
barometer
mb
20260510131024 58 162 0.9 3.5 0.00 0.31 0.00 86 1022.6
20260510130503 58 145 0.0 3.5 0.00 0.31 0.00 86 1022.7
20260510130003 58 185 0.0 1.7 0.00 0.31 0.00 88 1022.7
20260510125503 57 287 0.0 0.9 0.00 0.31 0.00 87 1022.7
20260510125025 57 214 0.0 1.7 0.00 0.32 0.00 88 1022.8
20260510124503 57 137 0.0 3.5 0.00 0.32 0.00 88 1022.3
20260510124003 57 130 0.0 3.5 0.00 0.32 0.00 89 1022.6
20260510123504 56 135 0.0 2.6 0.00 0.33 0.00 89 1022.5
20260510123024 56 136 0.0 1.7 0.00 0.33 0.00 90 1022.4
20260510122503 56 0 0.0 0.0 0.00 0.33 0.00 90 1022.5
20260510122003 55 0 0.0 0.0 0.00 0.33 0.00 91 1022.5
20260510121504 55 166 0.0 0.9 0.00 0.33 0.00 91 1022.5
20260510121003 54 170 0.0 0.9 0.00 0.33 0.00 92 1022.5
20260510120504 54 197 0.0 0.9 0.00 0.34 0.00 92 1022.7
20260510120003 54 151 0.0 1.7 0.00 0.34 0.00 92 1022.7
20260510115503 53 139 0.0 1.7 0.00 0.34 0.00 93 1022.1
20260510115004 53 239 0.0 0.9 0.00 0.34 0.00 93 1022.3
20260510114503 53 198 0.0 1.7 0.00 0.35 0.00 93 1022.4
20260510114003 53 167 0.0 1.7 0.00 0.35 0.00 93 1022.3
20260510113503 53 170 0.0 1.7 0.00 0.35 0.00 93 1022.3
20260510113003 53 160 0.0 0.9 0.00 0.35 0.00 93 1022.3
20260510112504 52 135 0.0 0.9 0.00 0.35 0.00 93 1022.1
20260510112003 52 100 0.0 0.9 0.00 0.35 0.00 93 1022.3
20260510111524 52 155 0.0 0.9 0.00 0.35 0.00 93 1022.3
20260510111003 52 155 0.0 0.9 0.00 0.35 0.00 93 1022.2
20260510110503 52 166 0.0 0.9 0.00 0.35 0.00 93 1022.3
20260510110003 52 160 0.0 1.7 0.00 0.35 0.00 93 1022.2
20260510105524 52 159 0.0 1.7 0.00 0.35 0.00 94 1022.0
20260510105004 52 163 0.0 1.7 0.00 0.35 0.00 94 1022.1
20260510104524 52 0 0.0 0.0 0.00 0.35 0.00 94 1022.1
20260510104003 52 213 0.0 2.6 0.00 0.35 0.00 94 1022.1
20260510103503 52 203 0.0 2.6 0.00 0.35 0.00 94 1021.8
20260510103003 51 121 0.0 0.9 0.00 0.35 0.00 94 1021.6
20260510102503 51 133 0.0 1.7 0.00 0.35 0.00 94 1021.5
20260510102004 51 141 0.0 1.7 0.00 0.35 0.00 94 1021.3
20260510101503 51 166 0.0 0.9 0.00 0.35 0.00 94 1021.2
20260510101003 51 191 0.0 1.7 0.00 0.35 0.00 94 1021.2
20260510100524 51 274 0.0 1.7 0.00 0.35 0.00 94 1021.3
20260510100003 51 142 0.0 1.7 0.00 0.35 0.00 94 1021.2
20260510095503 51 147 0.0 1.7 0.00 0.35 0.00 94 1021.0
20260510095003 51 151 0.0 1.7 0.00 0.35 0.00 94 1021.0
20260510094503 51 156 0.0 0.9 0.00 0.35 0.00 94 1020.9
20260510094003 51 130 0.0 0.9 0.00 0.35 0.00 94 1020.6
20260510093503 51 104 0.0 0.9 0.00 0.35 0.00 94 1020.7
20260510093003 51 140 0.0 0.9 0.00 0.35 0.00 94 1020.8
20260510092504 51 67 0.0 1.7 0.00 0.35 0.00 94 1020.6
20260510092024 51 54 0.0 1.7 0.00 0.35 0.00 94 1020.5
20260510091504 51 33 0.0 1.7 0.00 0.35 0.00 94 1020.4
20260510091003 51 77 0.0 1.7 0.00 0.35 0.00 94 1020.5
20260510090503 51 109 0.0 0.9 0.00 0.35 0.00 93 1020.5
20260510090003 51 117 0.0 2.6 0.00 0.35 0.00 93 1020.7
20260510085524 51 119 0.0 2.6 0.00 0.35 0.00 93 1020.5
20260510085003 51 86 0.0 2.6 0.00 0.35 0.00 93 1020.2
20260510084524 51 0 0.0 0.0 0.00 0.35 0.00 93 1020.3
20260510084003 51 0 0.0 0.0 0.00 0.35 0.00 93 1020.8
20260510083503 51 0 0.0 0.0 0.00 0.35 0.00 93 1020.5
20260510083004 51 0 0.0 0.0 0.00 0.35 0.00 93 1020.7
20260510082503 51 0 0.0 0.0 0.00 0.35 0.00 93 1020.6
20260510082003 51 330 0.0 1.7 0.00 0.35 0.00 93 1020.4
20260510081504 51 313 0.0 1.7 0.00 0.35 0.00 93 1020.5
20260510081003 51 245 0.0 0.9 0.00 0.35 0.00 93 1020.6
20260510080503 51 240 0.0 0.9 0.00 0.35 0.00 93 1020.5
20260510080003 51 212 0.0 0.9 0.00 0.35 0.00 93 1020.9
20260510075503 51 235 0.0 3.5 0.00 0.35 0.00 93 1020.6
20260510075003 51 242 0.0 3.5 0.00 0.35 0.00 93 1020.9
20260510074503 51 248 0.0 2.6 0.00 0.35 0.00 93 1020.3
20260510074003 51 211 0.9 2.6 0.00 0.35 0.00 93 1020.5
20260510073504 51 163 0.0 1.7 0.00 0.35 0.00 93 1019.9
20260510073003 52 294 0.0 0.9 0.00 0.35 0.00 92 1020.3
20260510072503 52 0 0.0 0.0 0.00 0.35 0.00 92 1020.2
20260510072003 52 0 0.0 0.0 0.00 0.35 0.00 92 1020.3
20260510071503 52 106 0.0 0.9 0.00 0.35 0.00 92 1020.7
20260510071024 52 106 0.0 0.9 0.00 0.35 0.00 92 1020.6
20260510070503 52 0 0.0 0.0 0.00 0.35 0.00 92 1020.7
20260510070003 52 0 0.0 0.0 0.00 0.35 0.00 92 1020.9
20260510065503 52 0 0.0 0.0 0.00 0.35 0.00 92 1021.2
20260510065004 52 0 0.0 0.0 0.00 0.35 0.00 92 1021.1
20260510064503 52 0 0.0 0.0 0.00 0.35 0.00 92 1021.2
20260510064003 52 286 0.0 2.6 0.00 0.35 0.00 92 1021.2
20260510063503 52 293 0.0 2.6 0.00 0.35 0.00 92 1021.4
20260510063004 52 327 0.0 1.7 0.00 0.35 0.00 92 1021.3
20260510062503 52 296 0.0 3.5 0.00 0.35 0.00 92 1021.4
20260510062003 52 292 0.9 3.5 0.00 0.35 0.00 92 1021.4
20260510061503 52 101 0.0 1.7 0.00 0.35 0.00 92 1021.1
20260510061004 52 96 0.0 2.6 0.00 0.35 0.00 92 1021.2
20260510060503 52 98 0.0 3.5 0.00 0.35 0.00 92 1021.2
20260510060003 52 144 0.0 3.5 0.00 0.35 0.00 92 1021.1
20260510055503 52 256 0.0 1.7 0.00 0.35 0.00 92 1021.5
20260510055024 52 287 0.0 1.7 0.00 0.35 0.00 92 1021.1
20260510054504 52 145 0.0 0.9 0.00 0.35 0.00 92 1020.6
20260510054003 52 145 0.0 0.9 0.00 0.35 0.00 92 1020.9
20260510053503 52 62 0.0 0.9 0.00 0.35 0.00 92 1020.7
20260510053004 52 85 0.0 1.7 0.00 0.35 0.00 92 1020.6
20260510052504 52 58 0.0 1.7 0.00 0.35 0.00 92 1020.6
20260510052003 52 356 0.0 0.9 0.00 0.35 0.00 92 1020.7
20260510051524 52 153 0.0 0.9 0.00 0.35 0.00 92 1020.4
20260510051004 52 156 0.0 0.9 0.00 0.35 0.00 92 1020.5
20260510050504 52 160 0.0 1.7 0.00 0.35 0.00 92 1020.4
20260510050003 52 169 0.0 1.7 0.00 0.35 0.00 92 1020.5
20260510045504 52 169 0.0 1.7 0.00 0.35 0.00 92 1020.5
20260510045024 52 170 0.0 1.7 0.00 0.35 0.00 92 1020.7
20260510044503 52 186 0.0 1.7 0.00 0.35 0.00 92 1020.6
20260510044024 52 188 0.0 1.7 0.00 0.35 0.00 92 1020.6
20260510043503 52 168 0.0 2.6 0.00 0.35 0.00 92 1020.7
20260510043003 53 159 0.9 2.6 0.00 0.35 0.00 92 1020.6
20260510042504 53 165 0.0 2.6 0.00 0.35 0.00 92 1020.7
20260510042024 53 198 0.0 1.7 0.00 0.35 0.00 92 1020.9
20260510041503 53 202 0.0 1.7 0.00 0.35 0.00 92 1020.8
20260510041003 53 208 0.0 1.7 0.00 0.35 0.00 92 1021.0
20260510040504 53 209 0.0 1.7 0.00 0.35 0.00 91 1020.8
20260510040004 53 30 0.0 0.9 0.00 0.35 0.00 91 1020.8
20260510035524 53 163 0.0 0.9 0.00 0.35 0.35 91 1020.4
20260510035003 53 163 0.0 0.9 0.00 0.35 0.35 91 1020.5
20260510034503 53 92 0.0 0.9 0.00 0.35 0.35 91 1020.4
20260510034025 53 120 0.0 1.7 0.00 0.35 0.35 91 1020.6
20260510033503 53 128 0.0 1.7 0.00 0.35 0.35 91 1020.9
20260510033003 53 0 0.0 0.0 0.00 0.35 0.35 91 1020.7
20260510032524 53 257 0.0 0.9 0.00 0.35 0.35 91 1020.6
20260510032024 53 257 0.0 0.9 0.00 0.35 0.35 91 1020.4
20260510031503 53 0 0.0 0.0 0.00 0.35 0.35 91 1020.4
20260510031025 53 0 0.0 0.0 0.00 0.35 0.35 91 1020.6
20260510030504 53 0 0.0 0.0 0.00 0.35 0.35 91 1020.9
20260510030003 53 0 0.0 0.0 0.00 0.35 0.35 91 1020.6
20260510025503 53 0 0.0 0.0 0.00 0.35 0.35 91 1020.6
20260510025003 53 352 0.0 1.7 0.00 0.35 0.35 91 1020.7
20260510024504 53 352 0.0 1.7 0.00 0.35 0.35 91 1020.9
20260510024004 53 63 0.0 0.9 0.00 0.35 0.35 91 1020.9
20260510023525 53 63 0.0 0.9 0.00 0.35 0.35 91 1020.9
20260510023003 53 174 0.0 0.9 0.00 0.35 0.35 91 1020.8
20260510022503 53 158 0.0 0.9 0.00 0.35 0.35 91 1020.6
20260510022003 53 240 0.0 0.9 0.00 0.35 0.35 91 1020.8
20260510021503 53 289 0.0 0.9 0.00 0.35 0.35 91 1020.9
20260510021004 53 152 0.0 0.9 0.00 0.35 0.35 91 1020.7
20260510020503 53 191 0.0 0.9 0.00 0.35 0.35 91 1020.8
20260510020024 53 192 0.0 0.9 0.00 0.35 0.35 91 1020.6
20260510015503 53 0 0.0 0.0 0.00 0.35 0.35 91 1020.6
20260510015004 53 276 0.0 0.9 0.00 0.35 0.35 91 1020.8
20260510014524 53 253 0.0 1.7 0.00 0.35 0.35 91 1020.8
20260510014004 53 252 0.0 1.7 0.00 0.35 0.35 91 1020.7
20260510013503 53 190 0.0 1.7 0.00 0.35 0.35 91 1020.5
20260510013003 53 190 0.0 1.7 0.00 0.35 0.35 91 1020.3
20260510012524 53 0 0.0 0.0 0.00 0.35 0.35 91 1020.5
20260510012003 53 14 0.0 0.9 0.00 0.35 0.35 91 1020.6
20260510011504 53 200 0.0 0.9 0.00 0.35 0.35 91 1020.9
20260510011024 53 216 0.0 1.7 0.00 0.35 0.35 91 1020.9
20260510010503 53 322 0.0 1.7 0.00 0.35 0.35 91 1020.9
20260510010003 53 270 0.0 0.9 0.00 0.35 0.35 91 1020.7
20260510005504 53 202 0.0 2.6 0.00 0.35 0.35 91 1020.6
20260510005003 53 142 0.0 3.5 0.00 0.35 0.35 91 1020.5
20260510004503 53 117 0.0 3.5 0.00 0.35 0.35 91 1020.4
20260510004004 53 176 0.0 1.7 0.00 0.35 0.35 91 1020.6
20260510003503 53 176 0.0 0.9 0.00 0.35 0.35 91 1020.5
20260510003003 53 0 0.0 0.0 0.00 0.35 0.35 91 1020.6
20260510002525 53 0 0.0 0.0 0.00 0.35 0.35 91 1020.6
20260510002003 53 0 0.0 0.0 0.00 0.35 0.35 91 1020.5
20260510001504 53 0 0.0 0.0 0.00 0.35 0.35 90 1020.3
20260510001003 53 319 0.0 0.9 0.00 0.35 0.35 90 1020.0
20260510000503 54 319 0.0 0.9 0.00 0.35 0.35 90 1020.1
20260510000003 54 151 0.0 0.9 0.00 0.35 0.35 90 1019.9
20260509235504 54 161 0.0 0.9 0.00 0.35 0.35 90 1020.0
20260509235025 54 119 0.0 1.7 0.00 0.35 0.35 90 1019.7
20260509234524 54 131 0.0 1.7 0.00 0.35 0.35 90 1019.9
20260509234024 54 150 0.0 0.9 0.00 0.35 0.35 90 1020.1
20260509233524 54 279 0.0 1.7 0.00 0.35 0.35 90 1020.1
20260509233003 54 232 0.0 1.7 0.00 0.35 0.35 89 1019.8
20260509232503 55 176 0.0 1.7 0.00 0.35 0.35 89 1019.8
20260509232003 55 122 0.0 0.9 0.00 0.35 0.35 89 1019.7
20260509231503 55 134 0.0 0.9 0.00 0.35 0.35 89 1019.4
20260509231024 55 345 0.0 2.6 0.00 0.35 0.35 89 1019.5
20260509230504 55 341 0.0 2.6 0.00 0.35 0.35 89 1019.5
20260509230004 55 270 0.0 0.9 0.00 0.35 0.35 89 1019.6
20260509225503 55 88 0.0 1.7 0.00 0.35 0.35 89 1019.6
20260509225003 55 94 0.0 3.5 0.00 0.35 0.35 89 1019.6
20260509224504 55 111 0.0 3.5 0.00 0.35 0.35 89 1019.6
20260509224004 55 249 0.0 3.5 0.00 0.35 0.35 89 1019.5
20260509223503 55 229 0.0 3.5 0.00 0.35 0.35 89 1019.6
20260509223003 55 188 0.0 1.7 0.00 0.35 0.35 89 1019.7
20260509222525 55 148 0.0 1.7 0.00 0.35 0.35 90 1019.5
20260509222003 55 117 0.0 1.7 0.00 0.35 0.35 90 1019.6
20260509221504 55 98 0.0 1.7 0.00 0.35 0.35 90 1019.4
20260509221003 55 108 0.0 0.9 0.00 0.35 0.35 90 1019.8
20260509220503 55 82 0.0 1.7 0.00 0.35 0.35 91 1019.5
20260509220024 55 129 0.0 1.7 0.00 0.35 0.35 91 1019.8
20260509215504 55 122 0.0 1.7 0.00 0.35 0.35 91 1019.8
20260509215003 55 147 0.0 2.6 0.00 0.35 0.35 91 1019.7
20260509214503 54 161 0.0 3.5 0.00 0.35 0.35 91 1020.0
20260509214003 54 147 0.0 3.5 0.00 0.35 0.35 91 1019.9
20260509213503 54 55 0.0 1.7 0.00 0.35 0.35 92 1020.1
20260509213003 54 55 0.0 1.7 0.00 0.35 0.35 92 1020.1
20260509212503 53 0 0.0 0.0 0.00 0.35 0.35 92 1020.1
20260509212003 53 0 0.0 0.0 0.00 0.35 0.35 92 1020.1
20260509211503 53 167 0.0 1.7 0.00 0.35 0.35 92 1020.0
20260509211003 53 167 0.0 1.7 0.00 0.35 0.35 92 1020.0
20260509210503 53 294 0.0 1.7 0.00 0.35 0.35 92 1020.2
20260509210003 52 331 0.0 2.6 0.00 0.35 0.35 92 1020.0
20260509205503 52 61 0.0 2.6 0.00 0.35 0.35 92 1020.1
20260509205005 52 0 0.0 0.0 0.00 0.35 0.35 92 1020.3
20260509204503 52 125 0.0 1.7 0.00 0.35 0.35 92 1020.6
20260509204003 52 125 0.0 1.7 0.00 0.35 0.35 92 1020.4
20260509203503 52 0 0.0 0.0 0.00 0.35 0.35 92 1020.6
20260509203004 52 0 0.0 0.0 0.01 0.35 0.35 92 1020.6
20260509202503 51 61 0.0 1.7 0.01 0.35 0.35 91 1020.9
20260509202004 51 61 0.0 1.7 0.02 0.35 0.35 91 1020.7
20260509201503 51 0 0.0 0.0 0.02 0.35 0.35 91 1020.9
20260509201006 51 0 0.0 0.0 0.02 0.35 0.35 91 1020.6
20260509200504 51 0 0.0 0.0 0.02 0.35 0.35 91 1020.9
20260509200003 51 109 0.0 0.9 0.02 0.35 0.35 91 1021.0
20260509195503 51 109 0.0 0.9 0.02 0.35 0.35 91 1021.0
20260509195003 51 0 0.0 0.0 0.02 0.35 0.35 91 1021.0
20260509194503 51 54 0.0 0.9 0.02 0.35 0.35 91 1020.9
20260509194003 51 49 0.0 0.9 0.02 0.35 0.35 91 1021.1
20260509193504 51 73 0.0 0.9 0.02 0.35 0.35 91 1021.5
20260509193003 51 83 0.0 0.9 0.02 0.35 0.35 91 1021.2
20260509192504 51 159 0.0 0.9 0.02 0.34 0.34 91 1021.3
20260509192024 51 157 0.0 0.9 0.01 0.34 0.34 91 1021.5
20260509191503 51 158 0.0 0.9 0.01 0.33 0.33 91 1021.5
20260509191003 51 132 0.0 2.6 0.01 0.33 0.33 91 1021.7
20260509190503 51 142 0.0 2.6 0.01 0.33 0.33 91 1021.4
20260509190005 51 177 0.0 1.7 0.02 0.33 0.33 91 1021.6
20260509185503 50 264 0.0 1.7 0.02 0.33 0.33 90 1021.4
20260509185004 50 286 0.0 0.9 0.02 0.33 0.33 90 1021.6
20260509184503 51 169 0.0 0.9 0.02 0.33 0.33 90 1021.5
20260509184003 51 169 0.0 0.9 0.03 0.33 0.33 91 1021.4
20260509183503 50 132 0.0 0.9 0.02 0.33 0.33 90 1021.7
20260509183003 50 131 0.0 0.9 0.03 0.33 0.33 90 1021.5
20260509182505 50 151 0.0 0.9 0.03 0.33 0.33 90 1021.5
20260509182003 50 171 0.0 1.7 0.04 0.33 0.33 90 1021.6
20260509181503 50 137 0.0 1.7 0.04 0.33 0.33 90 1021.8
20260509181024 50 32 0.0 0.9 0.04 0.33 0.33 90 1021.7
20260509180503 50 142 0.0 0.9 0.04 0.32 0.32 90 1021.7
20260509180024 50 128 0.0 2.6 0.04 0.32 0.32 90 1022.0
20260509175524 50 107 0.0 2.6 0.04 0.32 0.32 90 1021.8
20260509175003 50 54 0.0 0.9 0.04 0.31 0.31 90 1021.8
20260509174504 50 0 0.0 0.0 0.04 0.31 0.31 90 1022.0
20260509174003 49 0 0.0 0.0 0.04 0.31 0.31 90 1022.0
20260509173504 49 146 0.0 1.7 0.04 0.31 0.31 90 1022.1
20260509173004 49 152 0.0 1.7 0.04 0.30 0.30 90 1022.0
20260509172504 49 149 0.0 0.9 0.04 0.30 0.30 90 1022.4
20260509172003 49 124 0.0 0.9 0.03 0.29 0.29 90 1022.3
20260509171503 49 121 0.0 2.6 0.04 0.29 0.29 89 1022.4
20260509171003 49 113 0.9 2.6 0.04 0.29 0.29 89 1022.3
20260509170504 49 112 0.0 1.7 0.04 0.29 0.29 89 1022.2
20260509170003 49 124 0.0 1.7 0.04 0.28 0.28 89 1022.2
20260509165503 50 129 0.0 1.7 0.04 0.28 0.28 89 1022.3
20260509165025 49 140 0.0 3.5 0.04 0.28 0.28 89 1022.5
20260509164503 50 150 0.0 3.5 0.04 0.28 0.28 89 1022.3
20260509164003 49 163 0.0 2.6 0.04 0.27 0.27 89 1022.4
20260509163524 49 162 0.0 2.6 0.04 0.26 0.27 90 1022.5
20260509163003 49 143 0.0 1.7 0.04 0.26 0.26 90 1022.6
20260509162524 49 138 0.9 1.7 0.04 0.26 0.26 90 1022.7
20260509162003 49 155 0.9 1.7 0.05 0.26 0.26 90 1023.0
20260509161524 49 159 0.0 1.7 0.06 0.26 0.26 90 1023.0
20260509161003 49 138 0.0 1.7 0.06 0.25 0.25 90 1022.9
20260509160504 49 82 0.0 1.7 0.06 0.25 0.25 90 1022.9
20260509160004 49 109 0.0 0.9 0.06 0.24 0.24 91 1023.3
20260509155503 48 107 0.0 2.6 0.07 0.24 0.24 91 1023.2
20260509155003 48 116 0.9 3.5 0.07 0.24 0.24 91 1023.1
20260509154503 48 126 0.0 3.5 0.07 0.23 0.23 91 1023.3
20260509154003 48 152 0.0 3.5 0.07 0.23 0.23 91 1023.5
20260509153503 48 151 0.9 3.5 0.08 0.22 0.22 91 1023.5
20260509153003 47 147 0.9 3.5 0.08 0.22 0.22 91 1023.5
20260509152503 47 130 0.9 2.6 0.08 0.22 0.22 91 1023.5
20260509152003 47 112 0.0 2.6 0.09 0.21 0.21 91 1023.8
20260509151503 46 72 0.0 2.6 0.08 0.20 0.20 91 1023.8
20260509151003 46 70 0.0 2.6 0.08 0.19 0.19 91 1023.8
20260509150503 46 59 0.0 1.7 0.09 0.19 0.19 91 1023.8
20260509150004 45 70 0.9 1.7 0.09 0.18 0.18 91 1024.0
20260509145524 45 82 0.9 2.6 0.09 0.17 0.17 91 1023.7
20260509145004 45 86 0.0 2.6 0.08 0.17 0.17 91 1023.8
20260509144525 45 71 0.0 0.9 0.09 0.16 0.16 91 1024.0
20260509144003 44 67 0.9 0.9 0.08 0.15 0.15 90 1023.8
20260509143503 44 62 0.9 1.7 0.08 0.15 0.15 91 1023.8
20260509143024 44 51 0.0 1.7 0.07 0.14 0.14 90 1023.8
20260509142503 44 63 0.9 1.7 0.07 0.13 0.13 90 1023.6
20260509142003 44 60 0.9 1.7 0.07 0.13 0.13 90 1023.8
20260509141503 44 41 0.0 1.7 0.07 0.12 0.12 89 1023.8
20260509141003 44 43 0.0 1.7 0.06 0.11 0.11 90 1023.7
20260509140524 44 47 0.9 2.6 0.06 0.10 0.10 89 1023.6
20260509140004 44 42 0.9 2.6 0.05 0.09 0.09 90 1023.7
20260509135503 44 41 0.9 1.7 0.05 0.09 0.09 89 1023.8
20260509135004 44 51 0.9 2.6 0.05 0.08 0.08 89 1023.5
20260509134504 44 57 0.9 2.6 0.04 0.07 0.07 89 1023.7
20260509134004 44 57 0.9 1.7 0.04 0.07 0.07 89 1023.8
20260509133503 44 56 0.9 1.7 0.04 0.07 0.07 89 1023.6
20260509133003 44 55 0.0 1.7 0.04 0.07 0.07 89 1023.7
20260509132524 43 33 0.0 1.7 0.04 0.06 0.06 89 1023.9
20260509132003 43 47 0.0 0.9 0.03 0.06 0.06 89 1023.8
20260509131525 43 57 0.0 0.9 0.03 0.05 0.05 89 1023.6